Regional Weather Roundup
Issued by NWS Charleston, WV

Home | Current Version | Previous Version | Graphics & Text | Print | Product List | Glossary On
Versions: 1 2 3 4 5 6 7 8 9 10 11 12 13 14 15 16 17 18 19 20 21 22 23 24 25 26 27 28 29 30 31 32 33 34 35 36 37 38 39 40 41 42 43 44 45 46 47 48 49 50
000
ASUS41 KRLX 161110
RWRRLX
West Virginia Regional Weather Roundup
National Weather Service Charleston WV
600 AM EST SAT DEC 16 2017

Note: "fair" indicates few or no clouds below 12,000 feet with no
significant weather and/or obstructions to visibility.

WVZ003-161200-
Northern Panhandle of West Virginia

CITY           SKY/WX    TMP DP  RH WIND       PRES   REMARKS
WHEELING       CLOUDY    29  21  72 SW18G29   30.02S
$$

WVZ009-161200-
Northwest West Virginia

CITY           SKY/WX    TMP DP  RH WIND       PRES   REMARKS
PARKERSBURG    CLOUDY    32  22  66 S12       30.13R
$$

WVZ006-161200-
Western West Virginia

CITY           SKY/WX    TMP DP  RH WIND       PRES   REMARKS
HUNTINGTON     CLOUDY    32  20  61 S7        30.14R
$$

WVZ015-161200-
West Central West Virginia

CITY           SKY/WX    TMP DP  RH WIND       PRES   REMARKS
CHARLESTON     CLOUDY    33  21  61 SW8       30.15R
$$

WVZ022-031-161200-
North Central West Virginia

CITY           SKY/WX    TMP DP  RH WIND       PRES   REMARKS
CLARKSBURG     CLOUDY    31  21  66 SW9       30.09S
MORGANTOWN     CLOUDY    30  19  63 SW7G18    30.07S
$$

WVZ025-035-042-045-161200-
Southern West Virginia

CITY           SKY/WX    TMP DP  RH WIND       PRES   REMARKS
BECKLEY        CLEAR     25  18  74 W7        30.10R
LOGAN            N/A     28  21  74 CALM      30.13
BLUEFIELD      CLEAR     23  16  74 W8        30.09R
LEWISBURG      CLOUDY    28  20  71 W5        30.09S
$$

WVZ047-161200-
Northern Mountains of West Virginia

CITY           SKY/WX    TMP DP  RH WIND       PRES   REMARKS
ELKINS         CLOUDY    28  18  66 VRB5      30.06F
$$

WVZ052-161200-
Eastern Panhandle of West Virginia

CITY           SKY/WX    TMP DP  RH WIND       PRES   REMARKS
MARTINSBURG    CLEAR     32  15  49 W17       30.05S
PETERSBURG     CLOUDY    32  18  54 SW7       30.04F
$$



USA.gov is the U.S. government's official web portal to all federal, state and local government web resources and services.